When you browse on this site, cookies collect data to enhance your experience and personalize the content and advertising you see.
Visit our Privacy Policy to learn more. By continuing to use the site, you agree to this use of cookies and data.

Hourly Weather Kalgoorlie

Today, 13 July, Monday

Time Temperature Precipitation Wind Pressure Humidity
00:00 +10°C° 0 mm 7 mps 733 mmHg 41%
01:00 +9°C° 0 mm 6 mps 732 mmHg 42%
02:00 +9°C° 0 mm 6 mps 732 mmHg 44%
03:00 +8°C° 0 mm 6 mps 732 mmHg 45%
04:00 +8°C° 0 mm 5 mps 732 mmHg 46%
05:00 +7°C° 0 mm 5 mps 732 mmHg 47%
06:00 +7°C° 0 mm 5 mps 732 mmHg 46%
07:00 +8°C° 0 mm 6 mps 732 mmHg 45%
08:00 +8°C° 0 mm 6 mps 733 mmHg 44%
09:00 +11°C° 0 mm 7 mps 732 mmHg 38%
10:00 +14°C° 0 mm 7 mps 732 mmHg 32%
11:00 +17°C° 0 mm 8 mps 732 mmHg 25%
12:00 +18°C° 0 mm 8 mps 732 mmHg 23%
13:00 +20°C° 0 mm 8 mps 731 mmHg 21%
14:00 +21°C° 0 mm 8 mps 730 mmHg 18%
15:00 +20°C° 0 mm 6 mps 730 mmHg 20%
16:00 +19°C° 0 mm 5 mps 730 mmHg 21%
17:00 +18°C° 0 mm 4 mps 730 mmHg 23%
18:00 +17°C° 0 mm 4 mps 730 mmHg 23%
19:00 +15°C° 0 mm 5 mps 730 mmHg 24%
20:00 +14°C° 0 mm 5 mps 730 mmHg 24%
21:00 +13°C° 0 mm 5 mps 730 mmHg 24%
22:00 +13°C° 0 mm 5 mps 730 mmHg 24%
23:00 +11°C° 0 mm 6 mps 730 mmHg 24%

Tomorrow, 14 July, Tuesday

Time Temperature Precipitation Wind Pressure Humidity
00:00 +11°C° 0 mm 6 mps 729 mmHg 24%
01:00 +11°C° 0 mm 6 mps 729 mmHg 24%
02:00 +10°C° 0 mm 6 mps 728 mmHg 24%
03:00 +10°C° 0 mm 6 mps 728 mmHg 24%
04:00 +10°C° 0 mm 7 mps 728 mmHg 24%
05:00 +10°C° 0 mm 7 mps 728 mmHg 23%
06:00 +10°C° 0 mm 8 mps 728 mmHg 22%
07:00 +11°C° 0 mm 8 mps 728 mmHg 22%
08:00 +11°C° 0 mm 9 mps 728 mmHg 21%
09:00 +13°C° 0 mm 9 mps 729 mmHg 30%
10:00 +16°C° 0 mm 10 mps 729 mmHg 39%
11:00 +18°C° 0 mm 11 mps 729 mmHg 48%
12:00 +16°C° 0.1 mm 10 mps 729 mmHg 55%
13:00 +13°C° 0.1 mm 9 mps 729 mmHg 61%
14:00 +12°C° 0.1 mm 8 mps 728 mmHg 67%
15:00 +13°C° 0 mm 6 mps 729 mmHg 66%
16:00 +13°C° 0 mm 5 mps 730 mmHg 65%
17:00 +13°C° 0 mm 3 mps 730 mmHg 65%
18:00 +12°C° 0 mm 3 mps 730 mmHg 68%
19:00 +12°C° 0 mm 2 mps 731 mmHg 71%
20:00 +12°C° 0 mm 2 mps 731 mmHg 74%
21:00 +10°C° 0 mm 2 mps 731 mmHg 76%
22:00 +10°C° 0 mm 2 mps 732 mmHg 78%
23:00 +9°C° 0 mm 2 mps 732 mmHg 80%

Day after tomorrow, 15 July, Wednesday

Time Temperature Precipitation Wind Pressure Humidity
00:00 +9°C° 0 mm 2 mps 732 mmHg 81%
01:00 +9°C° 0 mm 2 mps 731 mmHg 82%
02:00 +9°C° 0 mm 2 mps 731 mmHg 84%
03:00 +8°C° 0 mm 2 mps 731 mmHg 84%
04:00 +8°C° 0 mm 2 mps 731 mmHg 85%
05:00 +9°C° 0 mm 1 mps 732 mmHg 86%
06:00 +9°C° 0 mm 2 mps 732 mmHg 83%
07:00 +10°C° 0 mm 2 mps 732 mmHg 79%
08:00 +12°C° 0 mm 2 mps 732 mmHg 76%
09:00 +13°C° 0 mm 2 mps 733 mmHg 68%
10:00 +14°C° 0 mm 3 mps 733 mmHg 60%
11:00 +17°C° 0 mm 4 mps 733 mmHg 53%
12:00 +18°C° 0 mm 4 mps 732 mmHg 50%
13:00 +19°C° 0 mm 5 mps 731 mmHg 47%
14:00 +19°C° 0 mm 5 mps 731 mmHg 45%
15:00 +19°C° 0 mm 4 mps 731 mmHg 47%
16:00 +18°C° 0 mm 3 mps 731 mmHg 49%
17:00 +17°C° 0 mm 2 mps 731 mmHg 52%
18:00 +16°C° 0 mm 2 mps 731 mmHg 56%
19:00 +15°C° 0 mm 1 mps 731 mmHg 60%
20:00 +14°C° 0 mm 1 mps 731 mmHg 64%
21:00 +14°C° 0 mm 1 mps 731 mmHg 65%
22:00 +13°C° 0 mm 1 mps 731 mmHg 66%
23:00 +13°C° 0 mm 1 mps 731 mmHg 68%

16 July, Thursday

Time Temperature Precipitation Wind Pressure Humidity
00:00 +13°C° 0 mm 2 mps 731 mmHg 66%
01:00 +13°C° 0 mm 2 mps 730 mmHg 65%
02:00 +12°C° 0 mm 3 mps 730 mmHg 64%
03:00 +12°C° 0 mm 3 mps 730 mmHg 66%
04:00 +12°C° 0 mm 3 mps 730 mmHg 67%
05:00 +12°C° 0 mm 3 mps 730 mmHg 68%
06:00 +12°C° 0 mm 4 mps 730 mmHg 67%
07:00 +13°C° 0 mm 4 mps 730 mmHg 66%
08:00 +13°C° 0 mm 4 mps 731 mmHg 65%
09:00 +16°C° 0 mm 5 mps 731 mmHg 56%
10:00 +20°C° 0 mm 7 mps 731 mmHg 47%
11:00 +23°C° 0 mm 8 mps 731 mmHg 38%
12:00 +24°C° 0 mm 8 mps 730 mmHg 35%
13:00 +24°C° 0 mm 9 mps 729 mmHg 32%
14:00 +26°C° 0 mm 9 mps 728 mmHg 30%
15:00 +24°C° 0 mm 7 mps 728 mmHg 30%
16:00 +23°C° 0 mm 6 mps 727 mmHg 31%
17:00 +22°C° 0 mm 5 mps 727 mmHg 32%
18:00 +21°C° 0 mm 5 mps 727 mmHg 31%
19:00 +20°C° 0 mm 5 mps 727 mmHg 30%
20:00 +19°C° 0 mm 6 mps 727 mmHg 30%
21:00 +19°C° 0 mm 6 mps 728 mmHg 29%
22:00 +18°C° 0 mm 7 mps 728 mmHg 28%
23:00 +17°C° 0 mm 7 mps 728 mmHg 27%

17 July, Friday

Time Temperature Precipitation Wind Pressure Humidity
00:00 +16°C° 0 mm 6 mps 728 mmHg 41%
01:00 +15°C° 0 mm 4 mps 727 mmHg 55%
02:00 +15°C° 0 mm 2 mps 727 mmHg 69%
03:00 +15°C° 0 mm 2 mps 727 mmHg 72%
04:00 +15°C° 0 mm 2 mps 727 mmHg 76%
05:00 +15°C° 0 mm 1 mps 726 mmHg 79%
06:00 +15°C° 0.5 mm 2 mps 727 mmHg 80%
07:00 +14°C° 0.5 mm 3 mps 727 mmHg 82%
08:00 +13°C° 0.5 mm 4 mps 727 mmHg 83%
09:00 +14°C° 0.7 mm 5 mps 727 mmHg 80%
10:00 +14°C° 0.7 mm 6 mps 727 mmHg 77%
11:00 +13°C° 0.7 mm 8 mps 728 mmHg 74%
12:00 +14°C° 0.9 mm 7 mps 727 mmHg 75%
13:00 +12°C° 0.9 mm 7 mps 727 mmHg 76%
14:00 +13°C° 0.9 mm 6 mps 727 mmHg 77%
15:00 +11°C° 0.1 mm 6 mps 727 mmHg 75%
16:00 +12°C° 0.1 mm 5 mps 727 mmHg 72%
17:00 +12°C° 0.1 mm 4 mps 728 mmHg 70%
18:00 +11°C° 0 mm 4 mps 728 mmHg 73%
19:00 +10°C° 0 mm 3 mps 729 mmHg 76%
20:00 +9°C° 0 mm 2 mps 729 mmHg 79%
21:00 +9°C° 0 mm 3 mps 730 mmHg 75%
22:00 +9°C° 0 mm 3 mps 730 mmHg 72%
23:00 +7°C° 0 mm 4 mps 730 mmHg 68%

18 July, Saturday

Time Temperature Precipitation Wind Pressure Humidity
00:00 +7°C° 0 mm 4 mps 730 mmHg 67%
01:00 +7°C° 0 mm 4 mps 730 mmHg 66%
02:00 +8°C° 0 mm 3 mps 731 mmHg 65%
03:00 +7°C° 0 mm 3 mps 731 mmHg 69%
04:00 +6°C° 0 mm 4 mps 731 mmHg 74%
05:00 +5°C° 0 mm 4 mps 731 mmHg 79%
06:00 +6°C° 0 mm 4 mps 731 mmHg 78%
07:00 +6°C° 0 mm 4 mps 732 mmHg 78%
08:00 +6°C° 0 mm 4 mps 733 mmHg 77%
09:00 +8°C° 0 mm 5 mps 733 mmHg 69%
10:00 +12°C° 0 mm 5 mps 733 mmHg 60%
11:00 +14°C° 0 mm 6 mps 733 mmHg 52%
12:00 +14°C° 0 mm 6 mps 733 mmHg 49%
13:00 +15°C° 0 mm 5 mps 732 mmHg 45%
14:00 +16°C° 0 mm 5 mps 732 mmHg 42%
15:00 +16°C° 0 mm 5 mps 732 mmHg 44%
16:00 +15°C° 0 mm 4 mps 732 mmHg 46%
17:00 +14°C° 0 mm 4 mps 732 mmHg 48%
18:00 +13°C° 0 mm 3 mps 733 mmHg 51%
19:00 +13°C° 0 mm 3 mps 734 mmHg 55%
20:00 +12°C° 0 mm 3 mps 734 mmHg 58%
21:00 +11°C° 0 mm 3 mps 734 mmHg 62%
22:00 +11°C° 0 mm 3 mps 734 mmHg 66%
23:00 +10°C° 0 mm 3 mps 735 mmHg 70%
Show more